Regional Weather Roundup
Issued by NWS

Home | Current Version | Previous Version | Graphics & Text | Print | Product List | Glossary Off
Versions: 1 2 3 4 5 6 7 8 9 10 11 12 13 14 15 16 17 18 19 20 21 22 23 24 25 26 27 28 29 30 31 32 33 34 35 36 37 38 39 40 41 42 43 44 45 46 47 48 49 50

257
ASUS43 KDMX 192301
RWRIA

WEATHER ROUNDUP FOR IOWA
NATIONAL WEATHER SERVICE DES MOINES IA
500 PM CST THU JAN 19 2017

NOTE: "FAIR" INDICATES FEW OR NO CLOUDS BELOW 12,000 FEET WITH NO
SIGNIFICANT WEATHER AND/OR OBSTRUCTIONS TO VISIBILITY.

* - THESE STATIONS ARE NOT NWS STATIONS...THUS NOT UNDER NWS
QUALITY CONTROL.  THEY ALSO DO NOT REPORT WEATHER SUCH
AS PRECIPITATION OR FOG.

IAZ001>003-012>014-020>022-031>034-043>046-200000-
   NORTHWEST IOWA

CITY           SKY/WX    TMP DP  RH WIND       PRES   REMARKS
CARROLL *      FOG       37  37 100 SE3       29.67F VSB<1/4
CHEROKEE *     CLOUDY    40  40  99 E3        29.67F FOG
DENISON *      FOG       41  41 100 CALM      29.64F VSB 1
LE MARS *      FOG       39  39 100 SE6       29.67S VSB 1   WCI  35
ORANGE CITY *  FOG       39  39 100 S3        29.67R VSB 3/4
SHELDON *      FOG       39  39 100 SE10      29.65S VSB 1/2 WCI  32
SIOUX CITY     FOG       41  40  96 SE6       29.65F VSB 1/2
SPENCER        FOG       37  37 100 CALM      29.68S VSB 1/2
STORM LAKE *   FOG       36  36 100 SE6       29.67S VSB<1/4 WCI  31
$$

IAZ055>058-069>071-079>083-090>094-200000-
   SOUTHWEST IOWA

CITY           SKY/WX    TMP DP  RH WIND       PRES   REMARKS
ATLANTIC *     CLOUDY    41  41 100 E3        29.66S FOG
AUDUBON *      FOG       39  37  93 CALM      29.67S VSB 3/4
CLARINDA *     FOG       45  45 100 CALM      29.68S VSB 1/2
COUNCIL BLFS * FOG       41  41 100 CALM      29.66S VSB<1/4
CRESTON *      MIX PCPN  41  41 100 E7        29.68S VSB<1/4
HARLAN  *      FOG       41  41 100 CALM      29.69S VSB 1/2
LAMONI         FOG       43  43 100 E5        29.67F VSB 1/4
RED OAK *      FOG       43  43 100 CALM      29.66S VSB 1/4
SHENANDOAH *   FOG       43  43 100 S3        29.67S VSB 1
$$

IAZ047>049-059>061-072>074-084-200000-
   CENTRAL IOWA

CITY           SKY/WX    TMP DP  RH WIND       PRES   REMARKS
AMES           CLOUDY    37  37 100 SE6       29.71S FOG     WCI  32
ANKENY *       CLOUDY    37  37 100 SE8       29.72F FOG     WCI  31
BOONE *        FOG       36  36 100 SE8       29.69S VSB<1/4 WCI  29
CHARITON *     FOG       39  37  93 E8        29.69F VSB<1/4 WCI  34
DES MOINES     FOG       39  38  96 SE8       29.71S VSB 3/4 WCI  33
GRINNELL*      CLOUDY    36  36  99 E6        29.73S FOG     WCI  31
KNOXVILLE *    FOG       37  37 100 E7        29.70S VSB 1/4 WCI  32
MARSHALLTOWN   LGT RAIN  36  36 100 E9        29.71F FOG     WCI  29
NEWTON *       CLOUDY    37  36  93 E9        29.72S FOG     WCI  31
PELLA *        LGT RAIN  38  37  99 E3        29.73F
PERRY *        FOG       38  37  98 E8        29.69S VSB 1/4 WCI  32
$$

IAZ004>006-015-016-023>025-035-036-200000-
   NORTH CENTRAL IOWA

CITY           SKY/WX    TMP DP  RH WIND       PRES   REMARKS
ALGONA *       CLOUDY    37  37 100 SE9       29.69F FOG     WCI  31
CLARION *      CLOUDY    36  36 100 SE7       29.71S WCI  30
ESTHERVILLE    CLOUDY    35  35 100 E8        29.68F FOG     WCI  29
FORT DODGE *   CLOUDY    37  34  87 SE7       29.70S WCI  32
MASON CITY     CLOUDY    35  33  92 SE6       29.73R WCI  30
FOREST CITY *  CLOUDY    34  34 100 E7        29.72S FOG     WCI  28
WEBSTER CITY * FOG       36  36 100 SE7       29.68F VSB<1/4 WCI  30
IOWA FALLS *   CLOUDY    37  35  95 E12       29.72S FOG     WCI  29
$$

IAZ007>011-017>019-026>030-037>042-050>054-066-200000-
   NORTHEAST IOWA

CITY           SKY/WX    TMP DP  RH WIND       PRES   REMARKS
CEDAR RAPIDS   FOG       37  36  96 E10       29.74F VSB 1   WCI  30
CHARLES CITY * MIX PCPN  36  36 100 E17       29.73F WCI  25
CLINTON *      LGT RAIN  37  36  96 E9        29.80F FOG     WCI  30
DECORAH *      CLOUDY    36  34  93 E7        29.78R FOG     WCI  30
DUBUQUE        LGT RAIN  37  36  96 SE10      29.79F FOG     WCI  30
MONTICELLO *   LGT RAIN  39  37  93 E8        29.77F WCI  34
OELWEIN *      LGT RAIN  36  36 100 E12       29.76F WCI  27
WATERLOO       FOG       36  35  96 E14       29.74F VSB 1   WCI  27
$$

IAZ064-065-067-068-078-200000-
   EAST CENTRAL IOWA

CITY           SKY/WX    TMP DP  RH WIND       PRES   REMARKS
DAVENPORT      LGT RAIN  37  36  96 E10       29.78F FOG     WCI  30
IOWA CITY      RAIN      39  38  96 E9        29.77F FOG     WCI  33
MUSCATINE *    CLOUDY    41  39  93 E8        29.76F FOG
QUAD CITIES    RAIN      39  37  92 E12       29.77F FOG     WCI  32
$$

IAZ062-063-075>077-085>089-095>099-200000-
   SOUTHEAST IOWA

CITY           SKY/WX    TMP DP  RH WIND       PRES   REMARKS
BURLINGTON     CLOUDY    41  41 100 E8        29.72F FOG
FAIRFIELD *    CLOUDY    37  37 100 E7        29.73S FOG     WCI  32
FORT MADISON * CLOUDY    41  41 100 E3        29.74S FOG
KEOKUK *       CLOUDY    43  43 100 E7        29.71S FOG
OSKALOOSA *    LGT RAIN  37  37  98 E9        29.73S WCI  31
OTTUMWA        LGT RAIN  39  39 100 E8        29.72S FOG     WCI  33
WASHINGTON *   CLOUDY    37  37 100 E8        29.74F FOG     WCI  31
$$

ABBREVIATIONS USED IN REMARKS
   TC - TEMPERATURES IN CELSIUS
  WCI - WIND CHILL INDEX
   HX - HEAT INDEX
  VSB - VISIBILITY
$$





USA.gov is the U.S. government's official web portal to all federal, state and local government web resources and services.